Spring Lake, NC

5:28 PM EDT on August 28, 2016 (GMT -0400)
Pope Field Airport

Weather History for KPOB - April, 2013

Change the Weather History Date:

Saturday, April 6, 2013

  Actual Average Record
Temperature  
Mean Temperature 52 °F -  
Max Temperature 65 °F 71 °F 85 °F (1986)
Min Temperature 39 °F 47 °F 28 °F (2004)
Degree Days  
Heating Degree Days 13    
Growing Degree Days 2 (Base 50)    
Moisture  
Dew Point 36 °F    
Average Humidity 56    
Maximum Humidity 96    
Minimum Humidity 29    
Precipitation  
Precipitation 0.00 in - - ()
Sea Level Pressure  
Sea Level Pressure 30.19 in    
Wind  
Wind Speed 4 mph (East)    
Max Wind Speed 15 mph    
Max Gust Speed 18 mph    
Visibility 10 miles    
Events Rain    
Averages and records for this station are not official NWS values.
T = Trace of Precipitation, MM = Missing Value Source: NWS Daily Summary

Daily Weather History Graph

Daily Weather History Graph

Search for Another Location

Airport or City:

Trip Planner

Search our weather history database for the weather conditions in past years. The results will help you decide how hot, cold, wet, or windy it might be!

Date:

Astronomy

Apr. 06, 2013 Rise Set
Actual Time 6:55 AM EDT 7:41 PM EDT
Civil Twilight 6:29 AM EDT 8:07 PM EDT
Nautical Twilight 5:59 AM EDT 8:37 PM EDT
Astronomical Twilight 5:28 AM EDT 9:09 PM EDT
Moon 4:30 AM EDT (4/6) 4:15 PM EDT (4/6)
Length of Visible Light 13h 37m
Length of Day
12h 46m
Waning Crescent, 15% of the Moon is Illuminated
Apr 6
Waning Crescent
Apr 10
New
Apr 18
First Quarter
Apr 25
Full
May 2
Last Quarter

Hourly Weather History & Observations

Time (EDT) Temp. Windchill Dew Point Humidity Pressure Visibility Wind Dir Wind Speed Gust Speed Precip Events Conditions
12:58 AM 43.0 °F - 41.9 °F 96% 30.04 in 10.0 mi Calm Calm - N/A   Clear
1:58 AM 42.4 °F - 40.8 °F 94% 30.05 in 10.0 mi Calm Calm - N/A   Clear
2:58 AM 41.7 °F 39.8 °F 40.5 °F 95% 30.06 in 10.0 mi West 3.5 mph - N/A   Clear
3:58 AM 40.5 °F 38.4 °F 39.2 °F 95% 30.07 in 10.0 mi WNW 3.5 mph - N/A   Clear
4:58 AM 39.6 °F - 38.5 °F 96% 30.09 in 10.0 mi WSW 2.3 mph - N/A   Clear
5:58 AM 39.0 °F - 37.0 °F 93% 30.11 in 10.0 mi Calm Calm - N/A   Clear
6:58 AM 42.4 °F - 36.0 °F 78% 30.15 in 10.0 mi ENE 2.3 mph - N/A   Clear
7:58 AM 45.7 °F 42.0 °F 36.1 °F 69% 30.18 in 10.0 mi ENE 6.9 mph - N/A   Clear
8:58 AM 50.4 °F - 36.7 °F 59% 30.21 in 10.0 mi ENE 10.4 mph - N/A   Clear
9:58 AM 54.3 °F - 31.1 °F 41% 30.23 in 10.0 mi ENE 15.0 mph - N/A   Clear
10:58 AM 58.1 °F - 29.7 °F 34% 30.25 in 10.0 mi East 11.5 mph 18.4 mph N/A   Clear
11:58 AM 59.9 °F - 30.9 °F 33% 30.26 in 10.0 mi NE 11.5 mph 17.3 mph N/A   Clear
12:58 PM 61.3 °F - 31.1 °F 32% 30.25 in 10.0 mi Variable 4.6 mph - N/A   Clear
1:58 PM 62.4 °F - 29.8 °F 29% 30.24 in 10.0 mi Variable 6.9 mph - N/A   Clear
2:58 PM 64.4 °F - 33.1 °F 31% 30.22 in 10.0 mi East 3.5 mph - N/A   Clear
3:58 PM 65.3 °F - 31.8 °F 29% 30.21 in 9.0 mi Variable 3.5 mph - N/A   Clear
4:58 PM 65.8 °F - 33.1 °F 30% 30.19 in 10.0 mi Variable 5.8 mph - N/A   Clear
5:58 PM 65.1 °F - 32.0 °F 29% 30.20 in 10.0 mi East 5.8 mph - N/A   Clear
6:58 PM 63.5 °F - 32.9 °F 32% 30.21 in 10.0 mi East 5.8 mph - N/A   Clear
7:30 PM 62.6 °F - 33.8 °F 34% 30.21 in 10.0 mi East 3.5 mph - N/A Rain Light Rain
7:32 PM 62.6 °F - 33.8 °F 34% 30.21 in 10.0 mi East 4.6 mph - N/A   Clear
7:58 PM 60.8 °F - 34.3 °F 37% 30.22 in 10.0 mi East 3.5 mph - 0.00 in   Clear
8:58 PM 52.2 °F - 40.6 °F 65% 30.24 in 10.0 mi ENE 2.3 mph - N/A   Clear
9:58 PM 48.2 °F - 41.4 °F 77% 30.25 in 10.0 mi ENE 4.6 mph - N/A   Clear
10:58 PM 55.0 °F - 41.5 °F 60% 30.27 in 10.0 mi SSE 6.9 mph - N/A   Clear
11:58 PM 52.9 °F - 40.1 °F 62% 30.28 in 10.0 mi ESE 5.8 mph - N/A   Clear